[[{"header":{"parameterUnit":"m.s-1","parameterCategory":1,"la1":30.2991,"la2":30.254,"lo1":-89.0895,"lo2":-89.0444,"dy":0.0017,"dx":0.0017,"nx":28,"ny":28,"refTime":"2024-03-22T09:00:00:Z","depth":0,"parameterNumber":2,"parameterNumberName":"U-component_of_WINDS"},"data":[0,0,0,0,0,0,0,0,0,0,0,0,0,0,0,0,0,0,0,0,0,0,0,0,0,0,0,0,0,0,0,0,0,0,0,0,0,0,0,0,0,0,0,0,0,0,0,0,0,0,0,0,0,0,0,0,0,0,-4.8995,-4.8996,0,-4.9039,-4.904,-4.904,-4.89,-4.8895,-4.8891,-4.8887,-4.894,-4.8945,-4.895,0,0,0,0,0,0,0,0,0,0,0,0,0,-4.8799,-4.8803,-4.8995,-4.8996,-4.8996,-4.9039,-4.904,-4.904,-4.89,-4.8895,-4.889,-4.8885,-4.8938,-4.8944,-4.8951,0,0,0,0,0,0,0,0,0,0,0,0,0,-4.8868,-4.8805,-4.8995,-4.8932,-4.8926,-4.9039,-4.904,-4.904,-4.8901,-4.8895,-4.8889,-4.8883,-4.8936,-4.8944,-4.8952,-4.913,0,0,-4.8976,-4.898,0,0,0,0,0,0,0,0,-4.8864,-4.8875,-4.894,-4.8936,-4.893,-4.8957,-4.8989,-4.9071,-4.8903,-4.8911,-4.8887,-4.8879,-4.8951,-4.8958,-4.898,-4.9133,-4.9135,-4.8977,-4.8982,-4.8986,-4.8988,0,0,0,0,0,0,0,-4.886,-4.8873,-4.9013,-4.8942,-4.8936,-4.8904,-4.8906,-4.9004,-4.8967,-4.891,-4.89,-4.8907,-4.8947,-4.8973,-4.898,-4.9136,-4.8977,-4.8984,-4.8989,-4.8992,-4.9438,-4.9445,0,0,0,0,0,0,-4.8862,-4.887,-4.9011,-4.9014,-4.8881,-4.8912,-4.8915,-4.8955,-4.8965,-4.8961,-4.8912,-4.89,-4.8962,-4.8971,-4.8982,-4.9191,-4.8985,-4.8993,-4.8998,-4.9431,-4.944,-4.9447,0,0,0,0,0,0,-4.8858,-4.8876,-4.901,-4.8939,-4.8954,-4.8922,-4.8969,-4.8959,-4.8984,-4.8967,-4.896,-4.8944,-4.8957,-4.897,-4.9094,-4.9191,-4.8997,-4.9004,-4.9423,-4.9434,-4.9443,-4.9612,0,0,0,0,0,0,-4.8853,-4.8876,-4.8941,-4.8942,-4.8958,-4.9119,-4.8974,-4.8965,-4.8998,-4.8982,-4.8995,-4.8991,-4.8953,-4.9083,-4.9102,-4.9199,-4.901,-4.9414,-4.9428,-4.944,-4.9598,-4.9627,-4.9652,0,0,0,0,0,-4.8847,-4.8988,-4.8945,-4.8963,-4.9039,-4.9125,-4.9134,-4.9085,-4.9006,-4.9073,-4.9062,-4.8991,-4.9178,-4.9096,-4.9117,-4.9218,-4.9408,-4.9424,-4.9439,-4.9585,-4.9621,-4.9651,0,0,0,0,0,0,-4.9002,-4.8987,-4.8939,-4.9084,-4.9107,-4.9101,-4.9183,-4.9125,-4.9172,-4.9156,-4.9096,-4.91,-4.9235,-4.9239,-4.9149,-4.9392,-4.9279,-4.93,-4.9384,-4.9418,-4.9444,-4.944,-4.9017,0,0,0,0,0,-4.9053,-4.9121,-4.9106,-4.9236,-4.9249,-4.9215,-4.9251,-4.9211,-4.9233,-4.9242,-4.924,-4.9266,-4.9331,-4.9375,-4.9433,-4.9598,-4.96,-4.9678,-4.9705,-4.9728,-4.9746,-4.9835,-4.9869,-4.9499,-4.9499,-4.9498,0,0,-4.9159,-4.9159,-4.9207,-4.9267,-4.9279,-4.9354,-4.9224,-4.9308,-4.9364,-4.9256,-4.9371,-4.9372,-4.9397,-4.9542,-4.9606,-4.955,-4.9849,-4.9748,-4.9766,-4.9772,-4.9854,-4.9889,-4.9921,-4.951,-4.9508,-4.9506,0,0,-4.939,-4.9397,-4.9505,-4.9521,-4.9541,-4.9517,-4.9544,-4.9548,-4.9543,-4.9658,-4.9578,-4.9646,-4.9758,-4.9779,-4.9805,-5.0047,-4.9984,-5.0068,-5.021,-5.0297,-5.0326,-5.0352,-5.0438,-5.047,-5.0087,-5.0087,-5.0087,0,-4.952,-4.9626,-4.957,-4.9659,-4.9689,-4.9593,-4.9704,-4.9723,-4.9763,-4.9787,-4.9722,-4.9861,-4.9872,-5.0021,-5.008,-5.0105,-5.0134,-5.0065,-5.0326,-5.0351,-5.0374,-5.0456,-5.0489,-5.0097,-5.0096,-5.0095,-5.0094,0,-4.9785,-4.9861,-4.9947,-4.9985,-5.0025,-5.0125,-5.0086,-5.0134,-5.0092,-5.0077,-5.0196,-5.0206,-5.0264,-5.0297,-5.0258,-5.0442,-5.0406,-5.0336,-5.0221,-5.0421,-5.0496,-5.0527,-5.0111,-5.0108,-5.0105,-5.0102,0,0,-5.0113,-5.0119,-5.0151,-5.0168,-5.0184,-5.0243,-5.0341,-5.0396,-5.0438,-5.047,-5.0551,-5.0649,-5.0584,-5.0614,-5.0576,-5.0653,-5.0845,-5.0573,-5.0572,-5.0623,-5.1049,-5.1101,-5.1138,-5.0804,-5.0809,-5.0814,-5.1047,0,-5.0339,-5.0502,-5.0455,-5.0621,-5.0691,-5.0602,-5.0687,-5.0708,-5.0697,-5.0758,-5.0747,-5.0817,-5.0725,-5.0742,-5.0814,-5.0806,-5.0929,-5.0789,-5.088,-5.0884,-5.0875,-5.1178,-5.1233,-5.1452,-5.1076,-5.1081,-5.1085,0,-5.0625,-5.0665,-5.0837,-5.0842,-5.087,-5.0947,-5.0994,-5.1052,-5.1076,-5.1063,-5.1097,-5.1044,-5.1143,-5.103,-5.1166,-5.1072,-5.1107,-5.111,-5.1117,-5.1122,-5.0995,-5.1191,-5.152,-5.1553,-5.1131,-5.1127,-5.1124,0,-5.0846,-5.0944,-5.1059,-5.1076,-5.1085,-5.1142,-5.1149,-5.1165,-5.1202,-5.1246,-5.1269,-5.1325,-5.1355,-5.1401,-5.1366,-5.1286,-5.1509,-5.1392,-5.1502,-5.1503,-5.1551,-5.1549,-5.189,-5.1577,-5.1576,-5.1576,-5.1575,0,-5.1103,-5.1211,-5.1158,-5.1229,-5.1348,-5.1295,-5.1416,-5.1414,-5.143,-5.1501,-5.143,-5.1498,-5.1448,-5.1514,-5.1489,-5.1606,-5.1621,-5.1614,-5.1606,-5.162,-5.1621,-5.1641,-5.1625,-5.1584,-5.1582,-5.1581,-5.1579,0,-5.1369,-5.1337,-5.1457,-5.1456,-5.1459,-5.1547,-5.1548,-5.1615,-5.1599,-5.169,-5.1709,-5.1685,-5.1759,-5.1729,-5.1808,-5.179,-5.1941,-5.1913,-5.1932,-5.1924,-5.2036,-5.2025,-5.2401,-5.2448,-5.2106,-5.2109,-5.2112,0,-5.1533,-5.1614,-5.1622,-5.1663,-5.1675,-5.1742,-5.1779,-5.1732,-5.1773,-5.1807,-5.1871,-5.1938,-5.1988,-5.2111,-5.2103,-5.2163,-5.2136,-5.2264,-5.2145,-5.2156,-5.2137,-5.2132,-5.214,-5.2287,-5.2291,-5.2294,-5.2297,0,-5.183,-5.1811,-5.1864,-5.1915,-5.196,-5.1998,-5.203,-5.2068,-5.2023,-5.2074,-5.2147,-5.2186,-5.2266,-5.2334,-5.2388,-5.2399,-5.2342,-5.2335,-5.2363,-5.2378,-5.2385,-5.2382,-5.1996,-5.2326,-5.2323,-5.2321,-5.2319,-5.2318,-5.2049,-5.2117,-5.2133,-5.2197,-5.2216,-5.2248,-5.231,-5.2303,-5.2362,-5.2421,-5.2391,-5.2476,-5.25,-5.2566,-5.2585,-5.2653,-5.2604,-5.2645,-5.2655,-5.2666,-5.268,-5.2376,-5.2664,-5.2663,-5.2662,-5.2661,-5.266,0,-5.2341,-5.2347,-5.2406,-5.2452,-5.2503,-5.2443,-5.2476,-5.2523,-5.2598,-5.2624,-5.2675,-5.2761,-5.2827,-5.2825,-5.2887,-5.2942,-5.2918,-5.296,-5.2955,-5.2958,-5.2721,-5.269,-5.2979,-5.2978,-5.2978,-5.2978,-5.2978,-5.2978,-5.2498,-5.261,-5.2594,-5.2715,-5.2721,-5.2802,-5.2826,-5.2857,-5.2877,-5.2974,-5.3028,-5.3025,-5.3041,-5.3104,-5.3163,-5.3161,-5.3187,-5.3239,-5.3228,-5.3006,-5.2975,-5.2945,-5.2915,-5.3246,-5.3246,-5.3458,-5.346,-5.3462]},{"header":{"parameterUnit":"m.s-1","parameterCategory":1,"la1":30.2991,"la2":30.254,"lo1":-89.0895,"lo2":-89.0444,"dy":0.0017,"dx":0.0017,"nx":28,"ny":28,"refTime":"2024-03-22T09:00:00:Z","depth":0,"parameterNumber":3,"parameterNumberName":"V-component_of_WINDS"},"data":[0,0,0,0,0,0,0,0,0,0,0,0,0,0,0,0,0,0,0,0,0,0,0,0,0,0,0,0,0,0,0,0,0,0,0,0,0,0,0,0,0,0,0,0,0,0,0,0,0,0,0,0,0,0,0,0,0,0,-0.1545,-0.1545,0,-0.1605,-0.1606,-0.1606,-0.1625,-0.1624,-0.1624,-0.1624,-0.1685,-0.1687,-0.1689,0,0,0,0,0,0,0,0,0,0,0,0,0,-0.1445,-0.1447,-0.1545,-0.1545,-0.1546,-0.1605,-0.1606,-0.1606,-0.1625,-0.1624,-0.1624,-0.1624,-0.1685,-0.1687,-0.1689,0,0,0,0,0,0,0,0,0,0,0,0,0,-0.1495,-0.1447,-0.1545,-0.1562,-0.1565,-0.1605,-0.1606,-0.1607,-0.1625,-0.1624,-0.1624,-0.1624,-0.1684,-0.1687,-0.169,-0.1716,0,0,-0.1698,-0.17,0,0,0,0,0,0,0,0,-0.1492,-0.1499,-0.1559,-0.1561,-0.1564,-0.1607,-0.1593,-0.1643,-0.1625,-0.1602,-0.1624,-0.1623,-0.166,-0.1664,-0.1677,-0.1719,-0.1722,-0.1699,-0.17,-0.1702,-0.1702,0,0,0,0,0,0,0,-0.1489,-0.1496,-0.1569,-0.156,-0.1563,-0.1567,-0.1574,-0.1603,-0.1633,-0.1604,-0.1605,-0.1612,-0.1661,-0.1674,-0.1678,-0.1723,-0.1699,-0.1701,-0.1703,-0.1704,-0.1789,-0.179,0,0,0,0,0,0,-0.1482,-0.1493,-0.1567,-0.157,-0.1526,-0.1569,-0.1577,-0.1594,-0.1632,-0.1638,-0.1613,-0.1613,-0.1669,-0.1675,-0.168,-0.1714,-0.1702,-0.1704,-0.1706,-0.1788,-0.1789,-0.179,0,0,0,0,0,0,-0.148,-0.1489,-0.1564,-0.1532,-0.1542,-0.1572,-0.159,-0.1595,-0.1608,-0.1639,-0.1644,-0.1621,-0.1669,-0.1676,-0.1707,-0.1716,-0.1706,-0.1708,-0.1788,-0.1789,-0.1789,-0.1781,0,0,0,0,0,0,-0.1477,-0.1488,-0.1498,-0.1532,-0.1544,-0.159,-0.1591,-0.1596,-0.1613,-0.1614,-0.1648,-0.1653,-0.1669,-0.1703,-0.171,-0.172,-0.171,-0.1787,-0.1788,-0.1789,-0.178,-0.1781,-0.1782,0,0,0,0,0,-0.1474,-0.1494,-0.1499,-0.1508,-0.1558,-0.159,-0.1597,-0.1616,-0.1614,-0.1624,-0.1644,-0.1652,-0.1714,-0.1706,-0.1714,-0.1725,-0.1787,-0.1788,-0.1789,-0.178,-0.1781,-0.1782,0,0,0,0,0,0,-0.146,-0.1498,-0.1505,-0.1536,-0.156,-0.1593,-0.1608,-0.1616,-0.1641,-0.1641,-0.1662,-0.167,-0.1699,-0.1715,-0.1705,-0.1752,-0.1751,-0.1753,-0.1741,-0.1742,-0.1743,-0.1738,-0.1713,0,0,0,0,0,-0.1461,-0.1484,-0.1517,-0.1541,-0.1553,-0.1578,-0.1593,-0.1605,-0.1631,-0.1641,-0.1663,-0.1687,-0.1712,-0.1728,-0.1753,-0.1783,-0.179,-0.1794,-0.1795,-0.1796,-0.1798,-0.1815,-0.1817,-0.1794,-0.1794,-0.1794,0,0,-0.1463,-0.1486,-0.15,-0.1539,-0.1559,-0.1583,-0.1586,-0.1611,-0.1629,-0.1645,-0.1675,-0.1691,-0.172,-0.175,-0.1765,-0.1765,-0.1806,-0.1797,-0.1797,-0.18,-0.1816,-0.1818,-0.182,-0.1795,-0.1794,-0.1794,0,0,-0.1478,-0.1498,-0.1521,-0.1541,-0.1571,-0.1587,-0.1592,-0.1625,-0.1636,-0.1667,-0.1679,-0.17,-0.1743,-0.1762,-0.1778,-0.18,-0.1808,-0.1807,-0.1811,-0.1827,-0.1829,-0.1831,-0.1838,-0.1841,-0.1809,-0.1809,-0.1809,0,-0.1477,-0.1513,-0.1532,-0.1556,-0.1573,-0.1588,-0.1611,-0.1629,-0.1665,-0.1676,-0.1675,-0.1729,-0.1749,-0.1784,-0.1789,-0.1801,-0.1808,-0.1804,-0.1827,-0.1829,-0.1831,-0.1839,-0.1841,-0.1809,-0.1809,-0.1809,-0.1809,0,-0.1509,-0.1534,-0.1549,-0.1583,-0.1602,-0.1625,-0.1648,-0.1664,-0.1674,-0.1691,-0.1721,-0.1746,-0.1776,-0.1785,-0.1795,-0.1821,-0.182,-0.1823,-0.1822,-0.1833,-0.184,-0.1843,-0.1809,-0.1809,-0.1809,-0.1809,0,0,-0.1518,-0.1563,-0.1568,-0.1583,-0.1617,-0.1636,-0.166,-0.1689,-0.1703,-0.1727,-0.1747,-0.1783,-0.1786,-0.1803,-0.1816,-0.183,-0.1845,-0.1831,-0.1832,-0.1833,-0.1875,-0.1872,-0.1876,-0.1851,-0.1851,-0.1852,-0.1873,0,-0.1538,-0.1581,-0.1599,-0.1634,-0.1657,-0.1671,-0.1692,-0.1714,-0.173,-0.1752,-0.1769,-0.1794,-0.1796,-0.1807,-0.1821,-0.184,-0.1854,-0.1839,-0.187,-0.187,-0.1862,-0.188,-0.1877,-0.1896,-0.1876,-0.1876,-0.1876,0,-0.1567,-0.1591,-0.1628,-0.1658,-0.1669,-0.1687,-0.1715,-0.1735,-0.1761,-0.1772,-0.1791,-0.1803,-0.1828,-0.1825,-0.186,-0.1849,-0.1862,-0.1874,-0.1875,-0.1878,-0.1874,-0.1884,-0.1902,-0.1905,-0.1881,-0.1881,-0.188,0,-0.1569,-0.1611,-0.1639,-0.1652,-0.1688,-0.17,-0.1716,-0.1741,-0.1758,-0.1782,-0.1792,-0.1819,-0.1834,-0.1854,-0.1872,-0.1868,-0.1905,-0.1904,-0.1915,-0.1914,-0.1922,-0.1921,-0.1943,-0.1931,-0.1931,-0.193,-0.193,0,-0.1589,-0.1612,-0.1641,-0.1658,-0.1683,-0.1703,-0.1727,-0.1743,-0.1766,-0.1786,-0.18,-0.1818,-0.1842,-0.1863,-0.1878,-0.1904,-0.1911,-0.192,-0.1924,-0.1919,-0.1918,-0.1928,-0.1927,-0.1931,-0.1931,-0.1931,-0.1931,0,-0.1597,-0.1617,-0.1648,-0.1679,-0.1688,-0.1705,-0.1732,-0.1749,-0.1765,-0.179,-0.1798,-0.1823,-0.1849,-0.1869,-0.1903,-0.1913,-0.1941,-0.1945,-0.1932,-0.1934,-0.1944,-0.1943,-0.1973,-0.1978,-0.1962,-0.1962,-0.1963,0,-0.1608,-0.1626,-0.1659,-0.1673,-0.1689,-0.1712,-0.1728,-0.1748,-0.1765,-0.1795,-0.1808,-0.1835,-0.1858,-0.1899,-0.192,-0.1946,-0.1951,-0.196,-0.1955,-0.1949,-0.1951,-0.195,-0.1951,-0.196,-0.196,-0.196,-0.196,0,-0.1626,-0.1635,-0.1659,-0.1685,-0.1704,-0.1726,-0.1748,-0.1759,-0.1783,-0.1801,-0.1828,-0.1845,-0.188,-0.1907,-0.1935,-0.195,-0.1959,-0.1962,-0.1966,-0.1961,-0.1953,-0.1957,-0.1934,-0.1961,-0.1961,-0.1961,-0.1961,-0.1961,-0.1636,-0.1652,-0.1678,-0.1703,-0.1722,-0.1742,-0.1759,-0.1777,-0.18,-0.183,-0.184,-0.1868,-0.1892,-0.1931,-0.1947,-0.1969,-0.1969,-0.1975,-0.1976,-0.1977,-0.1977,-0.1949,-0.1974,-0.1974,-0.1974,-0.1974,-0.1974,0,-0.1655,-0.1672,-0.1695,-0.1725,-0.1745,-0.1752,-0.1776,-0.1792,-0.1816,-0.1839,-0.1861,-0.1891,-0.1917,-0.194,-0.1967,-0.198,-0.1984,-0.1986,-0.1985,-0.1989,-0.1975,-0.1969,-0.1982,-0.1982,-0.1982,-0.1982,-0.1982,-0.1982,-0.1667,-0.1694,-0.1706,-0.1743,-0.176,-0.1787,-0.18,-0.1819,-0.1837,-0.187,-0.1892,-0.1906,-0.1929,-0.1958,-0.1981,-0.1987,-0.1997,-0.1997,-0.2004,-0.1991,-0.199,-0.1989,-0.1983,-0.1999,-0.1999,-0.2016,-0.2017,-0.2017]}]]